Simultaneous Nadir Overpasses (SNOs) Predictions

Prediction of SNOs between GOES-15 and TERRA Satellite Orbit:

Table of predicted SNOs for the next 14.0 days since TLE Epoch: 10/29/2022
Index Date Time (GOES-15) GOES-15 Lat,Lon TERRA Lat,Lon Distance(km) Time Diff (sec)
1 10/29/2022 19:03:43 -0.26,-128.42 0.64,-132.68 484.60 80
2 10/31/2022 18:48:04 -0.26,-128.41 -0.12,-128.89 55.68 80
3 11/02/2022 18:35:06 -0.25,-128.40 -0.96,-125.12 373.30 80
4 11/03/2022 06:55:36 0.25,-128.42 -0.11,-130.10 191.02 80
5 11/05/2022 06:37:18 0.25,-128.41 0.69,-126.32 237.63 80
6 11/05/2022 18:57:38 -0.24,-128.38 0.38,-131.25 327.56 80
7 11/07/2022 18:44:39 -0.24,-128.36 -0.43,-127.47 101.18 80
8 11/08/2022 07:05:10 0.24,-128.39 -0.62,-132.46 461.99 80
9 11/10/2022 06:49:30 0.23,-128.37 0.15,-128.66 34.13 80
